[[{"header":{"parameterUnit":"m.s-1","parameterCategory":1,"la1":30.2991,"la2":30.254,"lo1":-89.0895,"lo2":-89.0444,"dy":0.0017,"dx":0.0017,"nx":28,"ny":28,"refTime":"2024-06-13T09:00:00:Z","depth":0,"parameterNumber":2,"parameterNumberName":"U-component_of_WINDS"},"data":[0,0,0,0,0,0,0,0,0,0,0,0,0,0,0,0,0,0,0,0,0,0,0,0,0,0,0,0,0,0,0,0,0,0,0,0,0,0,0,0,0,0,0,0,0,0,0,0,0,0,0,0,0,0,0,0,0,0,1.1286,1.1286,0,1.1322,1.1323,1.1323,1.1299,1.1298,1.1297,1.1296,1.1333,1.1335,1.1337,0,0,0,0,0,0,0,0,0,0,0,0,0,1.1195,1.1197,1.1286,1.1287,1.1287,1.1322,1.1323,1.1323,1.13,1.1298,1.1297,1.1296,1.1332,1.1334,1.1337,0,0,0,0,0,0,0,0,0,0,0,0,0,1.1233,1.1197,1.1286,1.1279,1.1279,1.1322,1.1323,1.1323,1.13,1.1298,1.1297,1.1295,1.1331,1.1334,1.1337,1.1388,0,0,1.1346,1.1348,0,0,0,0,0,0,0,0,1.1231,1.1237,1.128,1.128,1.128,1.1305,1.1304,1.1345,1.13,1.1292,1.1296,1.1294,1.1325,1.1328,1.1338,1.139,1.1392,1.1346,1.1348,1.135,1.135,0,0,0,0,0,0,0,1.1228,1.1235,1.13,1.1281,1.128,1.1274,1.1278,1.1312,1.1317,1.1293,1.1291,1.1296,1.1324,1.1336,1.1339,1.1392,1.1346,1.1349,1.1351,1.1352,1.1487,1.1489,0,0,0,0,0,0,1.1226,1.1233,1.1299,1.1301,1.1251,1.1277,1.1281,1.1298,1.1317,1.1318,1.1297,1.1294,1.1331,1.1336,1.134,1.1401,1.135,1.1352,1.1354,1.1485,1.1487,1.1489,0,0,0,0,0,0,1.1225,1.1233,1.1298,1.1267,1.1275,1.1281,1.13,1.13,1.1311,1.132,1.1321,1.1308,1.133,1.1336,1.1377,1.1402,1.1354,1.1356,1.1483,1.1486,1.1488,1.1524,0,0,0,0,0,0,1.1222,1.1232,1.1252,1.1267,1.1276,1.1334,1.1301,1.1302,1.1317,1.1313,1.133,1.1331,1.1329,1.1372,1.138,1.1405,1.1359,1.1481,1.1484,1.1488,1.152,1.1527,1.1533,0,0,0,0,0,1.1219,1.1261,1.1253,1.1261,1.1301,1.1335,1.134,1.1338,1.1319,1.1339,1.1344,1.1331,1.1398,1.1377,1.1385,1.1412,1.1479,1.1483,1.1487,1.1517,1.1526,1.1533,0,0,0,0,0,0,1.1248,1.1262,1.1254,1.1302,1.1318,1.1331,1.1356,1.1347,1.1368,1.1364,1.1359,1.1363,1.1405,1.1412,1.1388,1.1462,1.1436,1.1441,1.1456,1.1464,1.147,1.1468,1.1361,0,0,0,0,0,1.126,1.1287,1.1298,1.1339,1.1347,1.135,1.1365,1.1361,1.1377,1.1384,1.1392,1.1408,1.1432,1.1448,1.1472,1.1521,1.1524,1.1544,1.155,1.1555,1.156,1.1586,1.1595,1.1503,1.1503,1.1502,0,0,1.1285,1.1296,1.1314,1.1345,1.1357,1.1384,1.1356,1.1386,1.1406,1.1388,1.1427,1.1433,1.145,1.1495,1.1516,1.1503,1.1587,1.1561,1.1565,1.1567,1.1592,1.16,1.1608,1.1505,1.1505,1.1504,0,0,1.1345,1.1356,1.1391,1.1403,1.1421,1.1423,1.1432,1.1446,1.145,1.1489,1.1475,1.1499,1.1542,1.1554,1.1566,1.163,1.1618,1.1637,1.1671,1.1696,1.1704,1.171,1.1732,1.174,1.1642,1.1642,1.1642,0,1.1374,1.1415,1.1411,1.1442,1.1456,1.144,1.1476,1.1488,1.1512,1.1522,1.1507,1.156,1.157,1.1617,1.1633,1.1643,1.1652,1.1635,1.1703,1.1709,1.1715,1.1736,1.1745,1.1644,1.1644,1.1644,1.1644,0,1.1449,1.1478,1.1504,1.1528,1.1545,1.1578,1.1578,1.1596,1.1591,1.1594,1.1633,1.1645,1.167,1.1681,1.1676,1.1727,1.1719,1.1704,1.1677,1.1726,1.1746,1.1754,1.1648,1.1647,1.1646,1.1646,0,0,1.1528,1.1549,1.1559,1.1569,1.1588,1.1609,1.1641,1.1666,1.1681,1.1698,1.1724,1.176,1.1746,1.176,1.1756,1.1779,1.1827,1.1761,1.1761,1.1772,1.1884,1.1895,1.1904,1.182,1.1821,1.1823,1.1882,0,1.1589,1.1645,1.1642,1.1695,1.1721,1.1706,1.1734,1.1748,1.1751,1.1773,1.1777,1.1803,1.1783,1.1791,1.1812,1.1817,1.185,1.1813,1.1844,1.1845,1.184,1.1915,1.1927,1.1983,1.189,1.1891,1.1892,0,1.1667,1.1687,1.1742,1.1755,1.1766,1.1791,1.1813,1.1835,1.185,1.1851,1.1866,1.1858,1.189,1.1863,1.1906,1.1881,1.1893,1.1897,1.19,1.1902,1.1872,1.1919,1.2,1.2009,1.1905,1.1904,1.1903,0,1.1719,1.1759,1.1797,1.1806,1.1824,1.1841,1.1849,1.1863,1.1877,1.1896,1.1906,1.1928,1.194,1.1957,1.1956,1.1936,1.2,1.1972,1.2001,1.2001,1.2015,1.2014,1.2099,1.2024,1.2023,1.2023,1.2023,0,1.1786,1.182,1.1821,1.1844,1.1882,1.1877,1.1915,1.1921,1.1933,1.1956,1.1945,1.1968,1.1964,1.1987,1.1986,1.2021,1.2027,1.2028,1.2027,1.2029,1.2029,1.2037,1.2033,1.2025,1.2025,1.2025,1.2024,0,1.1851,1.1852,1.1892,1.1905,1.1909,1.1936,1.1947,1.1969,1.1971,1.2001,1.2008,1.2012,1.2038,1.2038,1.2067,1.2066,1.211,1.2105,1.2105,1.2104,1.2132,1.2129,1.2225,1.2237,1.2154,1.2155,1.2156,0,1.1894,1.1919,1.1935,1.195,1.1959,1.1984,1.1998,1.1995,1.2011,1.203,1.2049,1.2074,1.2093,1.2135,1.214,1.2162,1.2157,1.2189,1.2161,1.2161,1.2157,1.2155,1.2158,1.2195,1.2196,1.2197,1.2197,0,1.1969,1.1969,1.1991,1.2013,1.2031,1.2048,1.2064,1.2076,1.2075,1.2093,1.2119,1.2134,1.2164,1.2189,1.221,1.2217,1.2207,1.2206,1.2214,1.2216,1.2214,1.2215,1.212,1.2204,1.2203,1.2203,1.2203,1.2202,1.2024,1.2046,1.206,1.2085,1.2096,1.2111,1.2132,1.2137,1.2159,1.2183,1.2179,1.2208,1.2222,1.2249,1.2259,1.2281,1.227,1.2281,1.2284,1.2286,1.2289,1.2211,1.2285,1.2285,1.2285,1.2284,1.2284,0,1.2099,1.2107,1.2129,1.2152,1.2171,1.216,1.2176,1.2193,1.2219,1.2232,1.2252,1.2281,1.2305,1.2311,1.2334,1.235,1.2346,1.2356,1.2355,1.2356,1.2298,1.2289,1.2359,1.2359,1.2359,1.2359,1.2359,1.2359,1.214,1.2176,1.2177,1.2219,1.2227,1.2255,1.2265,1.2279,1.229,1.2323,1.2343,1.2347,1.2358,1.2381,1.2401,1.2403,1.2411,1.2423,1.2422,1.2368,1.2361,1.2353,1.2345,1.2425,1.2425,1.2478,1.2479,1.2479]},{"header":{"parameterUnit":"m.s-1","parameterCategory":1,"la1":30.2991,"la2":30.254,"lo1":-89.0895,"lo2":-89.0444,"dy":0.0017,"dx":0.0017,"nx":28,"ny":28,"refTime":"2024-06-13T09:00:00:Z","depth":0,"parameterNumber":3,"parameterNumberName":"V-component_of_WINDS"},"data":[0,0,0,0,0,0,0,0,0,0,0,0,0,0,0,0,0,0,0,0,0,0,0,0,0,0,0,0,0,0,0,0,0,0,0,0,0,0,0,0,0,0,0,0,0,0,0,0,0,0,0,0,0,0,0,0,0,0,-1.263,-1.2631,0,-1.2665,-1.2665,-1.2665,-1.2685,-1.2685,-1.2686,-1.2686,-1.2721,-1.2721,-1.2722,0,0,0,0,0,0,0,0,0,0,0,0,0,-1.2582,-1.2583,-1.263,-1.2631,-1.2631,-1.2664,-1.2665,-1.2665,-1.2685,-1.2685,-1.2686,-1.2686,-1.272,-1.2721,-1.2722,0,0,0,0,0,0,0,0,0,0,0,0,0,-1.2608,-1.2583,-1.263,-1.2645,-1.2647,-1.2664,-1.2665,-1.2666,-1.2685,-1.2685,-1.2686,-1.2686,-1.272,-1.2721,-1.2723,-1.2728,0,0,-1.2726,-1.2727,0,0,0,0,0,0,0,0,-1.2607,-1.261,-1.2642,-1.2644,-1.2646,-1.2671,-1.2661,-1.2686,-1.2685,-1.2671,-1.2686,-1.2686,-1.2704,-1.2707,-1.2713,-1.273,-1.2731,-1.2727,-1.2727,-1.2728,-1.2728,0,0,0,0,0,0,0,-1.2605,-1.2609,-1.2644,-1.2643,-1.2645,-1.265,-1.2654,-1.2666,-1.2686,-1.2672,-1.2673,-1.2677,-1.2705,-1.2711,-1.2714,-1.2732,-1.2727,-1.2728,-1.2728,-1.2729,-1.2755,-1.2755,0,0,0,0,0,0,-1.2601,-1.2607,-1.2643,-1.2645,-1.2626,-1.2651,-1.2655,-1.2663,-1.2686,-1.269,-1.2677,-1.2678,-1.2709,-1.2712,-1.2715,-1.2723,-1.2728,-1.2729,-1.273,-1.2755,-1.2755,-1.2755,0,0,0,0,0,0,-1.26,-1.2604,-1.2641,-1.2626,-1.2632,-1.2652,-1.266,-1.2663,-1.267,-1.269,-1.2694,-1.268,-1.2709,-1.2713,-1.2725,-1.2725,-1.273,-1.2731,-1.2755,-1.2755,-1.2755,-1.2739,0,0,0,0,0,0,-1.2598,-1.2603,-1.2605,-1.2626,-1.2632,-1.265,-1.266,-1.2664,-1.2672,-1.2674,-1.2694,-1.2697,-1.271,-1.2723,-1.2726,-1.2726,-1.2732,-1.2755,-1.2755,-1.2755,-1.274,-1.2738,-1.2737,0,0,0,0,0,-1.2596,-1.26,-1.2605,-1.261,-1.2635,-1.265,-1.2654,-1.2668,-1.2672,-1.2674,-1.2687,-1.2697,-1.2724,-1.2724,-1.2728,-1.2728,-1.2755,-1.2755,-1.2755,-1.274,-1.2739,-1.2737,0,0,0,0,0,0,-1.2578,-1.2603,-1.2609,-1.2619,-1.2633,-1.2654,-1.2657,-1.2666,-1.2678,-1.2679,-1.2697,-1.2701,-1.2711,-1.2721,-1.272,-1.2735,-1.2741,-1.2741,-1.2728,-1.2727,-1.2726,-1.2723,-1.2733,0,0,0,0,0,-1.2575,-1.2585,-1.2606,-1.2613,-1.2619,-1.2637,-1.2644,-1.2654,-1.2668,-1.2674,-1.2688,-1.2702,-1.2713,-1.2721,-1.2733,-1.2741,-1.2746,-1.2744,-1.2743,-1.2742,-1.2742,-1.2747,-1.2747,-1.2754,-1.2755,-1.2755,0,0,-1.2569,-1.2584,-1.2589,-1.2609,-1.2621,-1.2631,-1.2641,-1.2651,-1.2659,-1.2676,-1.2687,-1.2698,-1.2714,-1.2725,-1.273,-1.2733,-1.2741,-1.2741,-1.274,-1.2741,-1.2747,-1.2746,-1.2746,-1.2754,-1.2754,-1.2754,0,0,-1.2564,-1.2576,-1.2583,-1.2594,-1.2611,-1.2623,-1.2625,-1.2645,-1.2652,-1.2664,-1.2677,-1.2686,-1.2706,-1.2718,-1.2726,-1.2725,-1.2734,-1.2728,-1.2722,-1.2727,-1.2727,-1.2726,-1.2726,-1.2725,-1.2728,-1.2728,-1.2728,0,-1.2554,-1.257,-1.2585,-1.2595,-1.2603,-1.2619,-1.2626,-1.2636,-1.2656,-1.2662,-1.2666,-1.2691,-1.2703,-1.2716,-1.2716,-1.2722,-1.2725,-1.2726,-1.2725,-1.2725,-1.2725,-1.2725,-1.2725,-1.2728,-1.2728,-1.2728,-1.2728,0,-1.2557,-1.2568,-1.2571,-1.259,-1.2599,-1.2608,-1.2625,-1.2632,-1.2641,-1.2653,-1.2665,-1.268,-1.2696,-1.27,-1.2709,-1.2714,-1.2716,-1.2722,-1.2728,-1.2723,-1.2723,-1.2723,-1.2726,-1.2727,-1.2727,-1.2727,0,0,-1.254,-1.2568,-1.2569,-1.2578,-1.2599,-1.2607,-1.2616,-1.2631,-1.2637,-1.2651,-1.2659,-1.2676,-1.2682,-1.2691,-1.2702,-1.2706,-1.2705,-1.2713,-1.2713,-1.271,-1.2712,-1.2707,-1.2706,-1.2711,-1.2711,-1.2711,-1.271,0,-1.2538,-1.2555,-1.2569,-1.2581,-1.2591,-1.2606,-1.2614,-1.2627,-1.2638,-1.2648,-1.2661,-1.2672,-1.268,-1.2685,-1.2691,-1.2704,-1.2705,-1.2704,-1.2719,-1.2719,-1.2714,-1.2706,-1.2701,-1.27,-1.2711,-1.2711,-1.2711,0,-1.2537,-1.2549,-1.2562,-1.2582,-1.2586,-1.2593,-1.2608,-1.2618,-1.2633,-1.2641,-1.2652,-1.2663,-1.2674,-1.2679,-1.2694,-1.2693,-1.27,-1.2707,-1.2707,-1.2709,-1.2714,-1.2708,-1.2699,-1.2699,-1.2711,-1.2711,-1.2711,0,-1.2523,-1.2544,-1.2554,-1.2561,-1.2584,-1.2589,-1.2598,-1.2614,-1.2622,-1.2636,-1.2641,-1.2656,-1.2663,-1.2674,-1.2689,-1.2692,-1.2703,-1.2709,-1.2709,-1.2709,-1.2711,-1.271,-1.2703,-1.2715,-1.2715,-1.2715,-1.2715,0,-1.2518,-1.2525,-1.2548,-1.2554,-1.2563,-1.258,-1.2588,-1.2599,-1.2613,-1.2621,-1.2636,-1.2644,-1.2663,-1.2673,-1.2685,-1.2696,-1.2699,-1.2706,-1.2709,-1.2704,-1.2703,-1.2709,-1.2709,-1.2715,-1.2715,-1.2715,-1.2715,0,-1.2504,-1.252,-1.2532,-1.2553,-1.2558,-1.2564,-1.2582,-1.2589,-1.2601,-1.2612,-1.2615,-1.2634,-1.2647,-1.2663,-1.2681,-1.2689,-1.2699,-1.2703,-1.2693,-1.2695,-1.2695,-1.2694,-1.269,-1.2691,-1.2703,-1.2703,-1.2702,0,-1.25,-1.2506,-1.2528,-1.2534,-1.2544,-1.2555,-1.2563,-1.258,-1.2588,-1.2607,-1.2611,-1.2626,-1.2638,-1.2658,-1.2673,-1.2687,-1.2692,-1.269,-1.2695,-1.269,-1.2692,-1.2692,-1.2692,-1.2689,-1.2689,-1.2688,-1.2688,0,-1.2491,-1.2499,-1.251,-1.2525,-1.2534,-1.2547,-1.2559,-1.2564,-1.2584,-1.2593,-1.2606,-1.2615,-1.2634,-1.2648,-1.2664,-1.2675,-1.2685,-1.2687,-1.2688,-1.2683,-1.2677,-1.268,-1.269,-1.2687,-1.2687,-1.2687,-1.2687,-1.2687,-1.2482,-1.2488,-1.2504,-1.2517,-1.2528,-1.254,-1.2547,-1.256,-1.2572,-1.2588,-1.2597,-1.2611,-1.2627,-1.2649,-1.2659,-1.267,-1.2674,-1.2675,-1.2675,-1.2675,-1.2674,-1.2676,-1.2673,-1.2673,-1.2673,-1.2673,-1.2673,0,-1.2473,-1.2485,-1.2496,-1.2513,-1.2523,-1.2532,-1.2547,-1.2555,-1.2566,-1.258,-1.2592,-1.2608,-1.2621,-1.2638,-1.2653,-1.2658,-1.2663,-1.2662,-1.2661,-1.2664,-1.267,-1.2668,-1.2657,-1.2657,-1.2657,-1.2657,-1.2657,-1.2657,-1.247,-1.2481,-1.249,-1.2506,-1.2518,-1.2531,-1.2538,-1.2549,-1.2561,-1.2577,-1.2589,-1.26,-1.2615,-1.2631,-1.2644,-1.2649,-1.2653,-1.265,-1.2656,-1.2662,-1.2663,-1.2664,-1.2662,-1.2651,-1.2651,-1.2649,-1.2649,-1.2649]}]]